Marrakech, Morocco

7:06 PM WEST on April 23, 2017 (GMT +0100)
Marrakech

Weather History for GMMX - January, 2012

Change the Weather History Date:

Thursday, January 19, 2012

  Actual Average Record
Temperature  
Mean Temperature 50 °F -  
Max Temperature 63 °F 66 °F 78 °F (2008)
Min Temperature 37 °F 44 °F 33 °F (2005)
Degree Days  
Heating Degree Days 15    
Moisture  
Dew Point 36 °F    
Average Humidity 63    
Maximum Humidity 93    
Minimum Humidity 18    
Precipitation  
Precipitation 0.00 in 0.05 in - ()
Sea Level Pressure  
Sea Level Pressure 30.37 in    
Wind  
Wind Speed 3 mph ()    
Max Wind Speed 12 mph    
Max Gust Speed -    
Visibility 5.1 miles    
Events      
Averages and records for this station are not official NWS values.
T = Trace of Precipitation, MM = Missing Value Source: Averaged Metar Reports

Daily Weather History Graph

Daily Weather History Graph

Search for Another Location

Airport or City:

Trip Planner

Search our weather history database for the weather conditions in past years. The results will help you decide how hot, cold, wet, or windy it might be!

Date:

Astronomy

Jan. 19, 2012 Rise Set
Actual Time 7:31 AM WET 5:54 PM WET
Civil Twilight 7:05 AM WET 6:20 PM WET
Nautical Twilight 6:35 AM WET 6:50 PM WET
Astronomical Twilight 6:06 AM WET 7:19 PM WET
Moon 3:49 AM WET (1/19) 2:17 PM WET (1/19)
Length of Visible Light 11h 15m
Length of Day
10h 22m
Waning Crescent, 17% of the Moon is Illuminated
Jan 19
Waning Crescent
Jan 23
New
Jan 31
First Quarter
Feb 7
Full
Feb 14
Last Quarter

Hourly Weather History & Observations

Time (WET) Temp. Windchill Dew Point Humidity Pressure Visibility Wind Dir Wind Speed Gust Speed Precip Events Conditions
12:00 AM 45 °F - 39 °F 71% 30.38 in 6 mi ENE 2.3 mph - -  
12:00 AM 46.4 °F - 39.2 °F 76% 30.33 in - Variable 2.3 mph - N/A   Clear
12:30 AM 44.6 °F - 37.4 °F 76% 30.33 in - Calm Calm - N/A   Clear
1:00 AM 42.8 °F - 39.2 °F 87% 30.33 in - Variable 1.2 mph - N/A   Clear
1:30 AM 44.6 °F 40.7 °F 39.2 °F 81% 30.33 in - South 6.9 mph - N/A   Clear
2:00 AM 44.6 °F 43.1 °F 37.4 °F 76% 30.33 in - WSW 3.5 mph - N/A   Clear
2:30 AM 41.0 °F - 37.4 °F 87% 30.33 in - Variable 2.3 mph - N/A   Clear
3:00 AM 42 °F - 37 °F 76% 30.37 in 6 mi WSW 3.5 mph - -  
3:00 AM 42.8 °F - 37.4 °F 81% 30.33 in - Variable 2.3 mph - N/A   Clear
3:30 AM 41.0 °F 37.1 °F 37.4 °F 87% 30.33 in - SW 5.8 mph - N/A   Clear
4:00 AM 42.8 °F 38.6 °F 39.2 °F 87% 30.33 in 6.2 mi SW 6.9 mph - N/A   Unknown
4:30 AM 41.0 °F 38.0 °F 35.6 °F 81% 30.33 in 6.2 mi SW 4.6 mph - N/A   Unknown
5:00 AM 41.0 °F 38.0 °F 35.6 °F 81% 30.33 in 6.2 mi SW 4.6 mph - N/A   Unknown
5:30 AM 39.2 °F - 33.8 °F 81% 30.33 in 6.2 mi East 2.3 mph - N/A   Unknown
6:00 AM 40 °F - 37 °F 85% 30.41 in 6 mi ENE 1.2 mph - -  
6:00 AM 39.2 °F - 37.4 °F 93% 30.36 in - Calm Calm - N/A   Clear
6:30 AM 39.2 °F - 37.4 °F 93% 30.36 in - Calm Calm - N/A   Clear
7:00 AM 39.2 °F - 35.6 °F 87% 30.36 in - ESE 2.3 mph - N/A   Clear
7:30 AM 37.4 °F - 35.6 °F 93% 30.36 in - SE 2.3 mph - N/A   Clear
8:00 AM 37.4 °F - 33.8 °F 87% 30.36 in - Variable 2.3 mph - N/A   Clear
8:30 AM 41.0 °F - 37.4 °F 87% 30.39 in 5.6 mi Calm Calm - N/A   Unknown
9:00 AM 45 °F - 41 °F 81% 30.44 in 5 mi Calm Calm - -  
9:00 AM 44.6 °F - 41.0 °F 87% 30.39 in 5.0 mi East 1.2 mph - N/A   Unknown
9:30 AM 48.2 °F - 39.2 °F 71% 30.42 in 4.3 mi Variable 1.2 mph - N/A   Unknown
10:00 AM 51.8 °F - 37.4 °F 58% 30.42 in - Calm Calm - N/A   Clear
10:30 AM 53.6 °F - 41.0 °F 62% 30.42 in - Calm Calm - N/A   Clear
11:00 AM 57.2 °F - 41.0 °F 55% 30.42 in - Variable 1.2 mph - N/A   Clear
11:30 AM 57.2 °F - 39.2 °F 51% 30.42 in - West 4.6 mph - N/A   Clear
12:00 PM 58 °F - 37 °F 34% 30.40 in 6 mi West 4.6 mph - -  
12:00 PM 59.0 °F - 39.2 °F 48% 30.39 in - Variable 4.6 mph - N/A   Clear
12:30 PM 59.0 °F - 37.4 °F 45% 30.39 in - NW 4.6 mph - N/A   Clear
1:00 PM 60.8 °F - 35.6 °F 39% 30.39 in - WNW 5.8 mph - N/A   Clear
1:30 PM 60.8 °F - 33.8 °F 36% 30.36 in - West 9.2 mph - N/A   Clear
2:00 PM 62.6 °F - 32.0 °F 32% 30.36 in - West 9.2 mph - N/A   Clear
2:30 PM 62.6 °F - 32.0 °F 32% 30.36 in - WNW 11.5 mph - N/A   Clear
3:00 PM 63 °F - 31 °F 18% 30.34 in 5 mi NW 10.4 mph - -  
3:00 PM 62.6 °F - 30.2 °F 30% 30.36 in 5.0 mi WNW 10.4 mph - N/A   Unknown
3:30 PM 62.6 °F - 30.2 °F 30% 30.36 in 5.0 mi WNW 11.5 mph - N/A   Unknown
4:00 PM 62.6 °F - 30.2 °F 30% 30.36 in 4.3 mi NW 11.5 mph - N/A   Unknown
4:30 PM 60.8 °F - 30.2 °F 31% 30.36 in 4.3 mi WNW 9.2 mph - N/A   Unknown
5:00 PM 60.8 °F - 30.2 °F 31% 30.36 in 4.3 mi WNW 5.8 mph - N/A   Unknown
7:00 PM 57.2 °F - 30.2 °F 36% 30.39 in 3.7 mi Calm Calm - N/A   Unknown
7:30 PM 53.6 °F - 32.0 °F 44% 30.39 in 4.3 mi Calm Calm - N/A   Unknown
8:00 PM 51.8 °F - 35.6 °F 54% 30.39 in 4.3 mi SSE 1.2 mph - N/A   Unknown
8:30 PM 51.8 °F - 35.6 °F 54% 30.39 in 4.3 mi South 2.3 mph - N/A   Unknown
9:00 PM 50.0 °F - 35.6 °F 58% 30.39 in 4.3 mi South 2.3 mph - N/A   Unknown
9:30 PM 51.8 °F - 33.8 °F 50% 30.39 in 4.3 mi Variable 2.3 mph - N/A   Unknown
10:00 PM 50.0 °F - 35.6 °F 58% 30.39 in 5.0 mi Variable 1.2 mph - N/A   Unknown
10:30 PM 48.2 °F - 33.8 °F 58% 30.39 in 5.6 mi Variable 1.2 mph - N/A   Unknown
11:00 PM 46.4 °F 45.2 °F 35.6 °F 66% 30.39 in 5.0 mi East 3.5 mph - N/A   Unknown
11:30 PM 46.4 °F 45.2 °F 35.6 °F 66% 30.39 in - SE 3.5 mph - N/A   Clear